sat.trackr.live / text

‹ back to catalog

STARLINK-34765

NORAD 66506 · 2025-263X

PAYLOAD ACTIVE UNKNOWN

§ Identity

Operator
Country
US
Launch date
2025-11-15
Launch site
AFETR
Launch vehicle
Mass (kg)
RCS (m²)

Purposes: comms

External: N2YO · Heavens-Above · Gunter

§ Orbital elements

Epoch: 2026-05-25T02:13:00.634080Z

Period
94.27 min
Inclination
43.0007°
Eccentricity
0.0002441
Mean motion
15.27586012 rev/d
Perigee alt
481.4 km
Apogee alt
484.7 km
Semi-major
6,861.2 km
B*
5.4642e-4
RAAN
279.2229°
Arg perigee
279.2442°
Mean anomaly
80.8134°
Rev number
3,058

§ Raw data

STARLINK-347651 66506U 25263X   26145.09236845  .00014808  00000+0  54642-3 0  99902 66506  43.0007 279.2229 0002441 279.2442  80.8134 15.27586012 30580

JSON: /api/v1/satellites/66506 · /tle

For live sub-satellite position, see the globe view (requires WebGL).

§ Visibility from observer

Set your observer location to see the next 7 days of passes ≥ 10°. The values pass through the URL so the page stays shareable.

No JS? Fill the form by hand. The geolocation button needs JavaScript.